Showing default

SKYSAT C3, 41774

Orbit data source: Space-Track

SKYSAT C3, 41774 is a payload satellite owned by Terra Bella (US) in SSO that was launched on Fri, 16 Sep 2016 UTC via a VEGA launch vehicle from the French Guiana (FRGUI). Payloads include a variety of satellites, spacecraft, and rockets equipped with specific instruments for various scientific and technological missions. These include communications satellites like Starlink; space stations such as the ISS; scientific satellites like the Hubble; Earth observation satellites from companies like Planet Labs, Umbra, and HawkEye 360; GPS; miniature CubeSats for education and research; and military/defense satellites.

Loading next visibility...
SKYSAT C3 details
Identifier
41774, 2016-058E
Orbit
SSO
Last TLE update13 hours ago
Origin
Flag of USTerra Bella (US)
ManufacturerSS/Loral (MDA)
MissionOperational Commercial Imaging
Bus & MotorSKYSAT-GEN2, Unknown motor
Mass110 kg wet, 110 kg dry
Launch date (UTC)
2016-09-16 (8 years ago)
Launch vehicle
VEGA
Launch site
French Guiana (FRGUI)
Object type
Payload
Rocket body
Debris
Shape & HBRBox, 1.2 m
Radar Cross Section0.888 m², Medium (>0.1 m² and < 1m²)

Expand to show TLE details & history

TLE from 13 hours ago
0 SKYSAT C3
1 41774U 16058E   24356.70264506  .00018908  00000-0  53277-3 0  9996
2 41774  96.9823  42.7226 0005363 128.2081 231.9648 15.36460525462512
Epoch: 2024-12-21T16:51Z
Definitive object data (Epoch: 2024-12-21T16:51:48.533Z)
Latitude0.00001°
Longitude59.02037°
Altitude461.97 km
Speed7.634 km/s
True Right ascension02h 50m 53s
True Declination0° 00' 00"
Sunlit
Object was in full shadow at TLE epoch
Visualization TLE readout
Latitude13.94371°
Longitude-118.72374°
Altitude456.081 km
Speed7.642 km/s
Apparent Right ascension15h 54m 52s
Apparent Declination-12° 23' 13"
Sunlit
Object is in daylight
Visualization observer readout
Local Sidereal Time05:09:56
Azimuth36.226° NE
Elevation-57.882°
Doppler factor1
Orbital elements
Apogee altitude457.176 km
Perigee altitude449.848 km
Semi-major axis6,831.649 km
Eccentricity0.0005363
Inclination96.9823°
RAAN42.7226°
Arg. of periapsis128.2081°
True anomaly231.91642°
Mean anomaly231.9648°
Eccentric anomaly231.94061°
Mean motion3.84375 °/min
BSTAR0.00053277
Orbital period93.66 mins
Loading maneuver chart data...
Loading historical data...
Loading historical data...
Loading historical data...
Loading historical data...
Loading historical data...
Loading historical data...
Loading historical data...

SKYSAT C3 Visibility forecast

Observer location: undefined°, undefined

Span
Click to sort rows by Start time (UTC) header in descending order
Start Az.
Max El. time (UTC)
Max El. Az.
Max El.
End time (UTC)
End Az.
4 mins2024-12-22 15:19:14.241Z51.578° ENE2024-12-22 15:21:14.241Z88.858° E16.619°2024-12-22 15:23:14.241Z130.055° SE
5 mins2024-12-23 03:23:14.241Z168.839° S2024-12-23 03:25:14.241Z177.827° S44.273°2024-12-23 03:28:14.241Z347.915° N
|